Location: La Sioule Rivi�re
(46.3664°N, 3.3197°E)
Time: 12:07:00
(UTC+00:00)

Cosmos 1980 Rocket - Pass Details

Date: 29 October 2020
Orbit: 831 x 848 km, 71.0° (Epoch: 23 November)

Event Time Altitude Azimuth Distance (km) Brightness Sun altitude
Rises 17:30:16 0° 159° (SSE) 3,377 5.2 -9.9°
Reaches altitude 10° 17:33:24 10° 142° (SE) 2,445 4.3 -10.4°
Maximum altitude 17:37:09 19° 99° (E) 1,913 3.5 -11.1°
Enters shadow 17:39:30 15° 70° (ENE) 2,141 3.7 -11.5°
